カタログに戻る

COSMOS 374 DEB

運用中LEO
NORAD 5020·DEBRIS·🇷🇺 Russia

打ち上げ Oct 23, 1970 から Baikonur Cosmodrome

Loading…

次のパス (今後24時間)

TLE

最新Source: Space-Track

元期: Sep 13, 2026, 20:00 UTC

1 05020U 70089W   26256.83385865  .00001766  00000-0  59581-3 0  9999
2 05020  62.9286  61.4864 0688341 179.6080 180.5640 13.53351869690735

AllMySatでCOSMOS 374 DEBをリアルタイム追跡

Download on the App Store